This demonstration page uses our WeatherBlox Daily Observations layout. Learn more.

Left ArrowRight Arrow

39.01783, -85.05884

Hourly Observations for February 24, 2017

Temp ( °F °C ) Dew Point ( °F °C ) Humidity (%) Winds ( mph kmh ) Pressure ( in mb ) Visibility ( mi km ) Precip ( " mm )
12:52 am 00:52 Mostly Cloudy 60 15.6 55 12.8 84 84 SSE 10 17 29.70 1006 10 16 0.00 0.00
1:52 am 01:52 Clear 57 13.9 53 11.7 87 87 S 9 15 29.70 1006 10 16 0.00 0.00
2:52 am 02:52 Mostly Cloudy 56 13.3 53 11.7 90 90 S 8 13 29.71 1006 10 16 0.00 0.00
3:52 am 03:52 Partly Cloudy 56 13.3 52 11.1 87 87 S 8 13 29.70 1006 10 16 0.00 0.00
4:52 am 04:52 Mostly Clear 57 13.9 53 11.7 87 87 S 14 22 29.67 1005 10 16 0.00 0.00
5:52 am 05:52 Partly Cloudy 59 15 53 11.7 81 81 S 14 22 29.68 1005 10 16 0.00 0.00
6:52 am 06:52 Mostly Cloudy 59 15 53 11.7 81 81 S 13 20 29.68 1005 10 16 0.00 0.00
7:52 am 07:52 Partly Cloudy 60 15.6 53 11.7 78 78 S 15 24 29.68 1005 10 16 0.00 0.00
8:52 am 08:52 Partly Cloudy 64 17.8 54 12.2 70 70 S 18 30 29.68 1005 10 16 0.00 0.00
9:52 am 09:52 Mostly Cloudy 67 19.4 55 12.8 66 66 S 16 26 29.68 1005 10 16 0.00 0.00
10:52 am 10:52 Mostly Cloudy 69 20.6 56 13.3 63 63 SSW 21 33 29.65 1004 10 16 0.00 0.00
11:52 am 11:52 Mostly Cloudy 72 22.2 55 12.8 55 55 SSW 17 28 29.62 1003 10 16 0.00 0.00
12:52 pm 12:52 Mostly Cloudy 75 23.9 55 12.8 50 50 SSW 20 31 29.59 1002 10 16 0.00 0.00
1:52 pm 13:52 Mostly Cloudy 76 24.4 53 11.7 45 45 SSW 25 41 29.56 1001 10 16 0.00 0.00
2:52 pm 14:52 Mostly Cloudy 77 25 52 11.1 42 42 S 21 33 29.53 1000 10 16 0.00 0.00
3:52 pm 15:52 Mostly Cloudy 77 25 52 11.1 42 42 SW 13 20 29.54 1000 10 16 0.00 0.00
4:52 pm 16:52 Mostly Cloudy 75 23.9 52 11.1 45 45 SSW 13 20 29.54 1000 10 16 0.00 0.00
5:52 pm 17:52 Mostly Cloudy 74 23.3 51 10.6 45 45 S 15 24 29.52 1000 10 16 0.00 0.00
6:52 pm 18:52 Mostly Cloudy 72 22.2 52 11.1 50 50 S 15 24 29.50 999 10 16 0.00 0.00
7:32 pm 19:32 Cloudy with Nearby Thunderstorms 73 22.8 52 11.1 48 48 S 13 20 29.47 998 10 16 0.00 0.03
7:42 pm 19:42 Cloudy with Thunderstorms 70 21 54 12 57 57 SSW 16 26 29.50 999 10 16 0.00 0.00
7:48 pm 19:48 Windy with Storms Likely 66 19 55 13 68 68 W 32 52 29.56 1001 8 13 0.00 0.03
7:52 pm 19:52 Windy with Storms Likely 62 16.7 56 13.3 80 80 W 21 33 29.55 1001 6 10 0.01 0.25
8:18 pm 20:18 Cloudy with Strong Thunderstorms 61 16.1 57 13.9 87 87 S 9 15 29.53 1000 4 6 0.02 0.51
8:33 pm 20:33 Cloudy with Nearby Thunderstorms 61 16.1 57 13.9 87 87 SSW 9 15 29.50 999 10 16 0.05 1.27
8:52 pm 20:52 Cloudy with Light Rain 61 16.1 57 13.9 87 87 SW 9 15 29.55 1001 10 16 0.05 1.27
9:52 pm 21:52 Cloudy 61 16.1 57 13.9 87 87 SW 10 17 29.54 1001 10 16 0.00 0.03
10:52 pm 22:52 Mostly Cloudy with Light Rain 56 13.3 52 11.1 87 87 WNW 25 41 29.59 1002 10 16 0.00 0.03
11:10 pm 23:10 Cloudy 54 12 45 7 72 72 WNW 24 39 29.59 1002 10 16 0.00 0.00
11:37 pm 23:37 Cloudy 53 11.7 41 5 64 64 WNW 20 31 29.62 1003 10 16 0.00 0.03
11:52 pm 23:52 Cloudy 52 11.1 41 5 66 66 WNW 13 20 29.60 1002 10 16 0.00 0.03

Powered by AerisWeather